sat.trackr.live / text

‹ back to catalog

ONEWEB-0592

NORAD 54658 · 2022-166S

PAYLOAD ACTIVE UNKNOWN

§ Identity

Operator
Country
UK
Launch date
2022-12-08
Launch site
AFETR
Launch vehicle
Mass (kg)
RCS (m²)

Purposes: comms

External: N2YO · Heavens-Above · Gunter

§ Orbital elements

Epoch: 2026-09-20T03:51:06.263424Z

Period
108.94 min
Inclination
87.9289°
Eccentricity
0.0002054
Mean motion
13.21824370 rev/d
Perigee alt
1,176.2 km
Apogee alt
1,179.3 km
Semi-major
7,555.9 km
B*
2.0976e-4
RAAN
225.0661°
Arg perigee
79.7522°
Mean anomaly
280.3844°
Rev number
18,398

§ Raw data

ONEWEB-05921 54658U 22166S   26263.16048916  .00000100  00000+0  20976-3 0  99962 54658  87.9289 225.0661 0002054  79.7522 280.3844 13.21824370183987

JSON: /api/v1/satellites/54658 · /tle

For live sub-satellite position, see the globe view (requires WebGL).

§ Visibility from observer

Set your observer location to see the next 7 days of passes ≥ 10°. The values pass through the URL so the page stays shareable.

No JS? Fill the form by hand. The geolocation button needs JavaScript.